Weather in Guney

Russia / Zabaykalsky Krai     50°31′09″N   114°33′23″E
temp.,
°C
wind,
m/s
gust,
m/s
humid.,
%
clouds,
%
prec.,
mm/h
press.,
hPa
HPBL,
m
8 may, sat
sat800:00+4nw356450 0.0 100673
03:00+3nw33705 0.0 100827
06:00+1wnw22753 0.0 100919
09:00+7nw46515 0.0 1009663
12:00+11nnw6732100 0.5 10072829
15:00+12nw482699 0.5 10052883
18:00+13nw472095 0.0 10042977
21:00+11nnw223067 0.0 100521
9 may, sun
sun900:00+6se115017 0.0 100710
03:00+6s115238 0.0 100710
06:00+4w11585 0.0 100810
09:00+9wnw34407 0.0 1008509
12:00+13nnw4526100 0.0 10062963
15:00+14wnw452399 0.0 10052790
18:00+14nw242550 0.0 10052391
21:00+10nnw6849100 0.1 1007424
10 may, mon
mon1000:00+7w227231 0.6 100824
03:00+6wnw117795 0.6 100810
06:00+5nw1180100 0.0 100810
09:00+9sse2259100 0.0 1007354
12:00+14sse4537100 0.0 10041726
15:00+16e5834100 0.1 10012202
18:00+9ne5674100 7.7 1003573
21:00+7nw6981100 7.8 1005609
11 may, tue
tue1100:00+6nw71184100 0.2 1005705
03:00+6nw71379100 0.2 10041075
06:00+5nw71377100 0.0 10031002
09:00+4wnw101377100 0.1 10021037
12:00+3nw91292100 0.4 1001753
15:00+3nnw71497100 7.8 10011008
18:00+6n71678100 4.1 10021327
21:00+5wnw3374100 4.1 100332
12 may, wed
wed1200:00+6nw81676100 0.0 1004503
03:00+4wnw1018751 0.0 1006491
06:00+3wnw816762 0.0 1008506
09:00+5wnw913655 0.0 1007691
12:00+10nw89544 0.0 10061168
15:00+13nw810395 0.0 10041901
18:00+14nw712321 0.0 10022295
21:00+10w33495 0.0 100436